NOAA NWS Hourly Roundups by Site

Regional Weather Roundup for Phoenix, AZ

To Select Another Site Choose from List

Select Site:  

117
ASUS45 KPSR 221510
RWRAZ

ARIZONA HOURLY REGIONAL WEATHER ROUNDUP
NATIONAL WEATHER SERVICE PHOENIX AZ
800 AM MST WED JAN 22 2020

NOTE: FAIR INDICATES FEW OR NO CLOUDS BELOW 12,000 FEET WITH NO
SIGNIFICANT WEATHER AND/OR OBSTRUCTIONS TO VISIBILITY.

AZZ001>003-036-221600-
NORTHWEST ARIZONA

CITY           SKY/WX    TMP DP  RH WIND       PRES   REMARKS
BULLHEAD CITY  PTCLDY    45  41  87 CALM      30.17
KINGMAN        CLEAR     32  30  92 CALM      30.15R
$$

AZZ004>008-015-016-018-221600-
NORTH CENTRAL ARIZONA

CITY           SKY/WX    TMP DP  RH WIND       PRES   REMARKS
GRAND CANYON   PTCLDY    27  25  92 CALM      30.14R
WILLIAMS       CLOUDY    30  30 100 E3        30.14
PRESCOTT       PTCLDY    31  29  92 S5        30.14R WCI  26
FLAGSTAFF      CLEAR     24  22  91 NE3       30.12R
PAYSON         MOCLDY    39  39 100 CALM      30.14
PAGE           FOG       31  29  92 CALM      30.12  VSB<1/4
$$

AZZ009>014-017-221600-
NORTHEAST ARIZONA

CITY           SKY/WX    TMP DP  RH WIND       PRES   REMARKS
WINSLOW        CLEAR     34  31  88 NE5       30.13R WCI  30
SAINT JOHNS    CLOUDY    37  34  89 W9        30.12R WCI  30
WINDOW ROCK    CLEAR     30  25  81 S3        30.10R
SHOW LOW       LGT RAIN  34  34 100 CALM      30.15
$$

AZZ540-542>544-546-548-221600-
GREATER PHOENIX AREA

CITY           SKY/WX    TMP DP  RH WIND       PRES   REMARKS
PHOENIX        CLOUDY    53  49  86 W3        30.12R
BUCKEYE        CLEAR     43  43 100 CALM      30.15  FOG
GLENDALE       CLOUDY    50  50 100 W3        30.15R
LUKE AFB       CLOUDY    46  46 100 N3        30.12R FOG
DEER VALLEY    PTCLDY    50  47  89 CALM      30.13R
SCOTTSDALE     PTCLDY    50  47  89 CALM      30.13R
MESA-FALCON    CLOUDY    52  51  97 CALM      30.12R FOG
MESA-GATEWAY   MOCLDY    52  52 100 CALM      30.14  FOG
CHANDLER       MOCLDY    52  52 100 CALM      30.13R FOG
$$

AZZ539-553-221600-
SOUTHWEST MARICOPA COUNTY AND PINAL COUNTY

CITY           SKY/WX    TMP DP  RH WIND       PRES   REMARKS
CASA GRANDE    CLOUDY    51  50  96 CALM      30.14S FOG
GILA BEND      PTCLDY    47  47 100 S5        30.13S
$$

AZZ503-504-507>509-221600-
SOUTHEAST ARIZONA

CITY           SKY/WX    TMP DP  RH WIND       PRES   REMARKS
TUCSON         CLOUDY    50  48  93 CALM      30.15R
DAVIS-MONTHAN  CLOUDY    50  47  90 W6        30.13
RYAN FIELD     CLOUDY    52  50  93 W3        30.15R
NOGALES        CLOUDY    48  46  93 CALM      30.12
SIERRA VISTA   MOCLDY    45  43  94 W7        30.14
DOUGLAS        CLOUDY    45  44  97 SW3       30.12R
SAFFORD        CLOUDY    49  46  90 NW14      30.10R
$$

AZZ532-221600-
SOUTHWEST ARIZONA

CITY           SKY/WX    TMP DP  RH WIND       PRES   REMARKS
YUMA           FOG       46  45  96 E3        30.14R VSB<1/4
$$

CAZ041-043-047-048-061-525>527-560>570-221600-
SOUTHERN CALIFORNIA

CITY           SKY/WX    TMP DP  RH WIND       PRES   REMARKS
DOWNTOWN L.A.  MOCLDY    53  46  77 CALM      30.18R
L.A. AIRPORT   CLOUDY    52  46  80 E3        30.18R
SAN DIEGO      MOCLDY    54  51  90 CALM      30.21R
BURBANK        MOCLDY    45  41  86 CALM      30.17R
ONTARIO        DRIZZLE   52  48  86 CALM      30.18R FOG
RIVERSIDE      CLOUDY    50  45  83 CALM      30.19R
PALM SPRINGS   MOCLDY    52  42  69 CALM      30.16R
EL CENTRO NAS  MOCLDY    45  37  73 W7        30.16R
IMPERIAL       PTCLDY    45  39  79 SW3       30.14R
BLYTHE         MOCLDY    44  42  93 N6        30.15R
NEEDLES        CLEAR     44  40  85 CALM      30.16R
$$

NVZ020-UTZ003-221600-
SOUTHERN NEVADA-UTAH

CITY           SKY/WX    TMP DP  RH WIND       PRES   REMARKS
LAS VEGAS      PTCLDY    45  35  68 W3        30.16R
SALT LAKE CITY CLOUDY    38  36  92 SE5       30.09R WCI  34
$$

NMZ009-TXZ055-221600-
NEW MEXICO-WEST TEXAS

CITY           SKY/WX    TMP DP  RH WIND       PRES   REMARKS
ALBUQUERQUE    MOCLDY    38  32  79 N5        30.03S WCI  34
EL PASO        PTCLDY    50  43  77 W13       30.02R
$$


........................KEY........................
SKY/WX - SKY CONDITION/WEATHER
TMP    - TEMPERATURE IN FAHRENHEIT
DP     - DEW POINT IN FAHRENHEIT
RH     - RELATIVE HUMIDITY IN PERCENT
WIND   - DIRECTION AND SPEED IN MILES PER HOUR (MPH)
VRB    - VARIABLE WIND DIRECTION
PRES   - MEAN SEA LEVEL PRESSURE IN INCHES OF MERCURY
         F - FALLING PRESSURE   R - RISING PRESSURE
         S - STEADY PRESSURE
VSB    - VISIBILITY IN MILES
HX     - HEAT INDEX IN FAHRENHEIT
WCI    - WIND CHILL INDEX IN FAHRENHEIT
TC     - TEMPERATURE IN CELSIUS WHICH IS ALSO KNOWN AS
         TEMPERATURE IN CENTIGRADE
AFB    - AIR FORCE BASE
         LUKE AFB IS LUKE AIR FORCE BASE
         DAVIS-MONTHAN IS DAVIS-MONTHAN AIR FORCE BASE
NAS    - NAVAL AIR STATION
         EL CENTRO NAS IS EL CENTRO NAVAL AIR STATION
N/A    - NOT AVAILABLE




 

View Past Reports for Phoenix, AZ.

Products Courtesy of NOAA-NWS
NWS Information Parsing Script by Ken True at Saratoga Weather - Script by SE Lincoln Weather.